Wind_Speed
19 20 21 21 21 22 21 20 21 20 22 23 25 26 27 29 31 33 34 35 35 36 38 41 43 44 45 47 48 49 49 49 49 48 48 48 49 48 47 48 49 49 49
19 19 19 20 21 22 22 22 23 25 24 24 26 27 28 30 33 35 37 38 38 40 42 44 46 49 51 52 54 56 57 58 56 53 50 49 49 49 49 48 49 50 50
23 23 21 22 24 24 26 27 28 28 27 27 29 31 33 34 35 36 38 40 43 44 46 47 50 52 54 56 58 60 61 62 62 59 56 54 52 51 51 51 51 52 52
25 25 24 26 28 28 29 31 31 32 33 36 37 38 39 40 41 42 43 46 48 51 53 54 55 57 59 61 62 64 66 67 66 65 62 60 58 56 55 55 54 54 54
29 29 28 30 31 32 33 34 35 36 38 41 43 45 47 47 48 51 54 56 57 58 59 60 61 63 65 66 67 68 69 70 69 69 67 64 62 61 60 60 58 57 56
33 33 32 35 36 37 38 38 40 42 43 44 46 48 51 53 56 59 61 64 65 65 64 64 65 66 67 69 70 72 72 72 72 71 69 67 64 62 59 59 60 58 56
35 36 37 39 41 43 44 44 46 48 50 52 53 54 54 57 60 62 63 66 68 68 67 66 67 68 69 70 70 71 70 69 68 66 65 62 59 55 52 53 56 56 53
38 37 39 41 43 47 49 51 53 55 57 58 59 59 60 60 61 62 64 66 68 69 69 69 70 70 70 67 63 61 60 58 56 54 52 50 49 45 43 43 44 46 46
42 42 43 45 48 50 51 54 55 58 58 59 60 61 61 60 61 65 68 69 69 68 68 70 71 70 64 60 56 53 52 50 48 46 45 43 42 39 37 38 39 41 42
45 45 46 48 51 52 53 55 54 55 55 56 57 58 60 63 66 67 67 66 65 66 68 69 68 64 60 57 54 51 49 48 45 43 41 40 40 38 38 39 40 41 43
49 49 49 50 51 52 53 54 54 55 56 58 59 62 64 66 66 66 64 64 66 67 68 65 60 58 57 56 54 52 49 47 45 45 44 43 42 42 41 42 44 45 45
51 50 51 51 52 53 53 54 55 55 57 60 63 66 66 65 64 64 65 68 69 69 67 63 58 56 56 55 54 53 52 51 49 49 49 49 48 47 47 47 48 48 48
54 55 54 52 52 52 54 57 59 58 59 62 64 65 64 63 65 67 68 70 70 69 66 61 59 58 58 58 57 56 55 56 55 54 55 55 54 53 52 53 53 52 51
55 55 53 51 52 55 56 58 60 61 63 64 64 63 63 65 67 68 69 70 69 66 63 62 61 61 61 61 60 59 60 61 61 59 59 60 60 60 59 59 58 57 56
53 52 52 53 54 56 58 60 62 64 65 64 63 64 66 68 70 71 71 70 68 65 63 62 61 59 61 61 61 61 62 63 63 61 61 62 63 64 64 63 63 62 60
54 55 54 54 56 58 60 62 62 63 62 62 63 65 67 69 70 69 69 68 68 66 65 62 62 60 59 59 58 59 60 60 60 59 60 61 62 63 64 65 65 64 62
56 55 54 55 56 58 59 59 59 60 61 62 64 65 66 68 68 68 67 66 66 66 66 63 62 56 50 47 45 46 49 50 49 49 50 51 52 55 59 62 64 65 63
55 54 53 53 55 56 57 57 58 60 61 62 63 64 65 66 65 65 64 65 64 63 61 57 51 45 41 40 39 39 39 39 40 41 41 41 42 46 50 54 57 59 61
54 55 54 54 55 56 55 56 57 59 61 62 63 63 62 62 62 63 62 59 55 52 50 47 41 38 36 37 36 34 33 33 34 36 36 37 40 43 45 47 49 51 54
55 56 56 55 55 54 54 56 58 60 61 61 61 61 61 61 61 59 53 48 45 44 44 41 36 33 33 33 31 29 28 28 29 31 33 35 37 39 41 41 42 44 46
53 55 56 55 54 54 55 58 59 60 60 60 61 61 60 58 55 49 44 42 41 41 38 33 29 27 27 26 25 24 23 23 25 26 27 27 27 28 30 31 33 35 36
54 55 54 53 53 54 56 58 59 58 59 60 60 58 54 50 45 42 40 38 37 35 29 24 20 19 20 21 20 18 17 17 18 18 16 16 18 17 18 20 22 25 29
53 52 51 52 53 54 56 57 57 58 59 58 55 51 47 42 39 38 35 33 32 28 19 15 14 15 14 14 12 11 10 10 10 11 10 10 12 11 12 14 16 19 22
48 49 51 53 55 55 55 56 57 56 54 50 47 43 40 37 36 33 29 26 24 16 11 10 10 9 8 7 6 6 6 7 7 7 6 6 7 7 9 11 13 16 20
47 50 52 53 54 55 54 53 51 49 45 42 39 36 35 34 32 27 22 18 13 8 6 5 4 4 3 2 2 4 4 4 4 3 2 3 3 4 6 8 11 15 19
48 50 51 53 53 52 50 46 43 40 36 33 31 31 31 30 25 19 12 8 4 1 1 2 3 4 3 2 2 2 2 2 1 3 4 6 7 8 9 10 12 15 18
Wind_Direction
315 313 312 307 304 298 292 286 284 284 286 289 289 288 287 285 283 285 287 287 286 285 284 285 286 287 287 285 283 280 278 275 274 273 271 268 267 267 267 268 267 265 264
324 323 323 318 311 305 299 291 286 283 284 288 290 290 289 287 286 286 287 287 287 287 288 288 289 290 290 290 289 288 287 284 281 277 273 269 267 265 262 264 264 264 264
317 319 322 315 308 308 305 299 294 288 284 286 289 292 292 292 290 291 292 291 290 288 288 288 288 288 288 288 287 286 284 283 281 279 276 272 270 267 263 261 260 260 260
309 311 313 310 307 306 302 297 297 293 287 286 288 290 292 292 290 290 291 292 292 290 288 286 285 285 285 285 284 284 283 282 279 277 274 272 272 271 267 263 259 257 255
305 307 308 305 304 304 301 298 297 295 291 290 289 289 290 290 289 288 287 288 289 288 285 285 285 285 285 284 284 283 283 281 280 277 275 273 272 270 268 264 261 256 254
303 303 304 302 300 299 298 299 300 296 294 292 291 291 290 289 287 286 287 288 289 289 287 285 284 284 285 286 285 283 281 280 278 277 275 273 272 269 266 262 258 255 254
298 300 300 299 298 296 296 296 296 295 292 289 288 287 288 288 287 287 287 288 288 288 287 286 285 285 285 284 284 283 282 280 277 274 271 268 266 265 263 260 255 252 252
292 293 294 296 296 294 293 293 292 291 289 286 285 284 285 286 286 287 287 289 288 288 288 288 288 288 288 287 286 284 283 281 278 273 267 262 260 260 261 258 252 247 248
289 289 291 294 294 292 290 289 289 289 289 288 285 284 284 283 284 286 288 289 290 290 289 289 289 290 290 287 284 281 280 280 277 271 264 260 258 257 257 253 249 246 248
288 287 288 293 294 293 292 292 291 290 289 288 287 285 284 284 285 286 288 290 290 291 291 291 292 291 287 283 280 276 275 275 274 269 262 259 257 256 255 252 250 249 249
289 288 288 291 293 293 293 293 292 289 288 288 287 286 287 287 288 288 288 290 292 293 294 295 293 288 282 278 275 273 272 272 270 268 265 261 259 257 255 253 252 252 252
291 289 288 289 289 290 291 293 292 289 288 287 287 288 289 290 291 291 292 293 294 295 295 295 291 287 283 279 276 274 272 270 270 269 268 266 263 260 258 256 255 255 256
292 291 291 291 291 292 293 294 293 291 290 289 289 291 291 291 293 294 296 296 296 296 296 295 291 288 285 282 279 276 273 271 270 269 268 267 265 263 260 258 257 257 258
296 296 295 294 295 296 295 294 294 292 291 291 292 292 292 293 295 297 297 297 296 295 294 292 291 289 286 282 279 277 274 272 270 269 268 267 265 263 262 260 260 259 259
301 303 303 300 297 295 293 292 290 291 293 294 295 295 295 296 297 297 297 296 295 294 292 291 289 287 285 282 280 277 274 272 270 268 266 265 264 263 261 260 259 259 258
304 303 301 298 295 295 294 293 292 293 295 296 297 298 298 298 297 296 295 295 295 294 293 291 288 286 284 282 280 277 274 272 270 268 266 265 263 262 260 258 256 256 254
300 298 296 296 296 297 296 296 295 296 297 299 300 300 299 299 298 298 298 297 296 295 294 292 290 288 284 281 279 278 276 272 269 268 267 265 263 260 258 256 254 252 250
295 293 294 296 298 298 297 296 297 298 300 301 301 300 300 300 299 299 299 298 297 296 295 294 292 288 283 280 281 281 279 273 267 266 266 266 264 261 258 255 251 248 246
295 292 293 296 298 298 297 297 299 300 301 301 301 301 301 301 301 301 300 299 298 296 296 294 291 285 282 281 283 281 277 270 266 265 266 264 261 260 257 254 250 247 244
297 292 292 296 297 298 298 299 300 301 301 302 303 303 303 303 303 303 302 300 299 298 298 295 289 283 281 281 281 280 276 271 267 264 263 260 259 259 257 252 247 243 241
299 297 297 298 298 299 300 300 300 301 303 305 306 305 304 304 304 305 304 302 301 301 299 294 289 284 281 280 282 281 277 272 268 265 262 260 257 255 253 247 241 236 233
300 300 299 298 298 300 300 301 303 306 307 307 306 305 304 305 306 306 306 305 303 303 299 294 291 285 283 284 283 280 273 266 262 261 260 254 250 246 243 238 231 227 224
299 298 297 298 300 302 304 306 308 309 308 306 305 304 306 307 306 305 305 304 302 302 297 295 293 290 290 288 282 272 261 249 246 252 255 244 244 242 237 230 224 221 218
300 300 301 303 305 306 307 309 309 308 306 305 305 307 309 308 307 307 304 299 298 296 295 299 300 298 297 291 274 249 243 243 250 256 256 247 249 248 241 233 226 220 215
301 303 305 306 307 308 310 309 308 306 305 305 307 310 312 313 313 310 303 296 290 288 302 314 315 321 328 306 235 241 257 267 265 262 280 283 278 271 258 243 233 226 221
306 308 308 309 310 310 310 308 307 306 307 309 312 315 317 318 318 314 305 291 278 284 15 23 9 8 14 10 341 325 326 327 308 301 305 297 290 284 276 266 252 239 230
Height
5855 5854 5853 5852 5851 5851 5850 5850 5849 5849 5848 5847 5846 5845 5845 5843 5842 5840 5838 5837 5837 5836 5834 5832 5830 5829 5827 5826 5825 5824 5823 5823 5823 5823 5824 5824 5825 5825 5825 5825 5827 5828 5828
5852 5851 5850 5849 5847 5846 5846 5845 5845 5844 5843 5842 5840 5839 5837 5835 5834 5832 5830 5828 5827 5826 5824 5823 5820 5818 5816 5814 5812 5811 5810 5809 5808 5808 5810 5811 5812 5814 5815 5815 5815 5817 5818
5850 5848 5848 5846 5844 5844 5843 5840 5839 5838 5837 5836 5834 5832 5830 5828 5826 5824 5822 5819 5817 5815 5814 5812 5809 5807 5804 5802 5800 5798 5796 5795 5795 5794 5794 5796 5798 5800 5802 5803 5803 5804 5806
5848 5846 5845 5842 5840 5840 5838 5836 5834 5833 5831 5828 5826 5824 5822 5820 5817 5815 5812 5810 5807 5804 5801 5798 5795 5793 5790 5788 5787 5785 5783 5782 5781 5780 5781 5781 5782 5784 5785 5787 5789 5791 5793
5844 5842 5841 5838 5835 5833 5830 5828 5827 5825 5822 5820 5818 5815 5812 5810 5807 5804 5801 5799 5796 5793 5788 5784 5780 5778 5775 5773 5771 5769 5767 5766 5764 5763 5764 5765 5766 5767 5768 5770 5772 5775 5778
5838 5836 5835 5830 5827 5825 5822 5820 5818 5815 5812 5809 5807 5804 5801 5798 5794 5791 5787 5784 5780 5777 5773 5769 5765 5762 5760 5758 5756 5752 5750 5748 5746 5745 5745 5746 5747 5748 5750 5752 5755 5758 5761
5832 5829 5827 5823 5820 5816 5813 5812 5809 5805 5802 5798 5795 5792 5789 5785 5780 5777 5773 5769 5766 5762 5758 5753 5749 5746 5743 5741 5738 5734 5731 5729 5727 5726 5725 5727 5728 5729 5731 5733 5737 5742 5746
5826 5822 5818 5815 5812 5807 5804 5802 5798 5794 5789 5785 5781 5778 5776 5773 5767 5762 5757 5753 5750 5747 5743 5738 5733 5729 5725 5722 5720 5717 5714 5712 5710 5709 5709 5710 5712 5713 5716 5718 5722 5727 5732
5817 5814 5810 5806 5801 5796 5793 5788 5785 5780 5776 5771 5767 5764 5761 5757 5754 5749 5742 5737 5733 5730 5725 5721 5716 5712 5708 5705 5703 5701 5699 5698 5696 5696 5696 5697 5699 5701 5703 5707 5711 5715 5719
5808 5805 5800 5796 5790 5785 5781 5775 5771 5766 5763 5758 5753 5749 5746 5742 5738 5735 5729 5723 5719 5714 5709 5705 5700 5696 5692 5689 5687 5685 5684 5684 5683 5684 5685 5686 5687 5689 5692 5696 5700 5703 5707
5798 5794 5789 5784 5779 5775 5770 5765 5760 5754 5750 5745 5740 5735 5730 5725 5721 5717 5713 5708 5703 5698 5693 5688 5683 5680 5677 5674 5672 5670 5669 5670 5671 5671 5673 5674 5675 5677 5681 5684 5687 5690 5694
5787 5784 5778 5773 5767 5763 5758 5753 5748 5742 5738 5732 5726 5720 5715 5709 5703 5699 5695 5691 5686 5681 5676 5672 5668 5664 5661 5659 5657 5655 5655 5656 5657 5658 5658 5659 5661 5663 5667 5670 5673 5677 5680
5774 5771 5765 5760 5755 5751 5746 5741 5735 5729 5724 5719 5712 5706 5700 5693 5687 5682 5677 5673 5669 5665 5660 5655 5651 5647 5645 5642 5640 5639 5639 5640 5641 5641 5641 5642 5644 5647 5651 5654 5658 5662 5666
5760 5756 5752 5748 5743 5738 5732 5727 5721 5716 5710 5704 5698 5691 5686 5679 5672 5666 5660 5654 5651 5648 5643 5639 5634 5630 5627 5624 5622 5621 5621 5621 5622 5622 5623 5624 5626 5630 5633 5637 5641 5646 5650
5748 5744 5739 5735 5729 5724 5718 5713 5707 5701 5696 5690 5683 5677 5670 5664 5657 5650 5644 5637 5632 5629 5627 5622 5618 5613 5608 5605 5602 5601 5600 5599 5600 5602 5603 5605 5607 5610 5614 5618 5623 5628 5632
5736 5730 5725 5720 5715 5710 5704 5699 5694 5688 5682 5676 5668 5661 5654 5647 5641 5633 5626 5620 5614 5609 5606 5603 5599 5596 5590 5585 5582 5580 5579 5578 5579 5580 5583 5585 5587 5590 5594 5598 5604 5609 5614
5724 5718 5712 5707 5702 5697 5692 5686 5681 5675 5668 5661 5653 5646 5639 5631 5624 5617 5609 5602 5595 5589 5585 5583 5577 5574 5570 5566 5564 5561 5560 5559 5560 5561 5563 5565 5568 5570 5573 5578 5583 5589 5595
5712 5706 5701 5695 5690 5685 5679 5673 5667 5661 5654 5646 5639 5631 5624 5616 5608 5600 5593 5585 5578 5571 5565 5562 5559 5556 5554 5551 5549 5547 5545 5544 5545 5547 5549 5551 5552 5553 5555 5558 5563 5569 5575
5699 5694 5689 5684 5678 5672 5666 5659 5653 5647 5639 5632 5624 5616 5608 5601 5593 5585 5577 5569 5562 5555 5550 5547 5544 5542 5541 5539 5537 5535 5534 5534 5535 5536 5538 5540 5539 5539 5540 5542 5546 5551 5558
5687 5681 5676 5671 5665 5659 5652 5645 5639 5632 5625 5617 5609 5601 5592 5584 5576 5568 5561 5554 5548 5543 5538 5534 5532 5530 5529 5528 5527 5526 5526 5525 5526 5527 5527 5528 5528 5528 5528 5530 5534 5538 5543
5674 5669 5664 5658 5652 5646 5639 5632 5625 5618 5610 5602 5593 5585 5576 5568 5560 5553 5548 5543 5537 5532 5527 5524 5522 5521 5521 5520 5519 5519 5519 5519 5518 5518 5518 5518 5518 5519 5519 5520 5523 5527 5533
5662 5656 5651 5645 5639 5632 5625 5618 5611 5603 5595 5587 5579 5571 5562 5555 5548 5543 5537 5532 5527 5522 5519 5517 5516 5515 5515 5514 5513 5513 5512 5512 5513 5513 5512 5513 5512 5513 5514 5515 5518 5521 5526
5649 5644 5639 5632 5626 5620 5612 5604 5596 5589 5581 5573 5565 5558 5550 5544 5538 5534 5529 5524 5519 5515 5513 5512 5511 5511 5510 5509 5508 5508 5508 5508 5509 5509 5509 5510 5510 5511 5511 5513 5515 5518 5522
5637 5632 5627 5620 5613 5606 5599 5591 5584 5575 5567 5560 5553 5546 5540 5535 5529 5525 5521 5517 5514 5511 5509 5509 5509 5508 5507 5506 5505 5505 5506 5506 5507 5507 5507 5508 5508 5509 5509 5511 5513 5515 5519
5626 5620 5614 5607 5600 5593 5587 5579 5571 5563 5556 5550 5543 5537 5532 5526 5521 5517 5513 5511 5510 5509 5508 5508 5507 5506 5505 5505 5504 5504 5505 5506 5506 5505 5505 5506 5506 5507 5508 5509 5511 5513 5515
5614 5608 5602 5595 5589 5581 5575 5567 5559 5553 5547 5542 5536 5531 5526 5521 5516 5511 5509 5508 5508 5508 5508 5508 5507 5506 5505 5505 5505 5505 5505 5505 5505 5504 5504 5504 5504 5504 5505 5506 5506 5508 5510